Starlink 34365

operational
NORAD ID: 64671 Int'l Des: 2025-139 Owner: SPXS Country: US Constellation: starlink
LEOCIRCULAR

Starlink 34365について

説明を読み込み中...

リアルタイム位置

3D地球を読み込み中...

次回通過

高度履歴

Altitude vs Time

uPlot chart will show altitude changes over time

軌道要素

1 64671U 25139H 26095.16341455 .00033130 00000-0 11273-2 0 9991
2 64671 53.1601 4.3348 0000686 82.1338 277.9741 15.30155749 44396
Epoch: Apr 5, 2026 • Age: 14 hours

現在のステータス

高度 481.4 km
速度 7.62 km/s
衛星直下点 -21.43°S, 118.11°W
打ち上げ日 Jun 28, 2025
運用期間 0.7 years
タイプ internet

技術仕様

分類 Payload
質量 575.00 kg
乾燥質量 530.00 kg
総質量 575.00 kg
長さ 0.30 m
直径 4.10 m
スパン 29.00 m
形状 Box + pan
製造者 SPXS
バスタイプ Starlink V2MO
フェーズステータス In Orbit
所有者/国 SPXS/US

大規模コンステレーション

Loading constellations...